This is the latest recevied weather packets stored in our database for station/object KB4NWJ. If no packets are shown the sender has not sent any weather packets the latest 1 day(s).
| Time | Temp. | Humidity | Pressure | Rain* | Wind** | Luminosity | Snow |
|---|---|---|---|---|---|---|---|
| 1778071040 | 20° C | 92% | 1015.4 hPa | 0 mm | - | 171 W/m² | - |
| 1778070435 | 18.89° C | 94% | 1015.7 hPa | 0 mm | - | 94 W/m² | - |
| 1778069830 | 18.89° C | 95% | 1015.6 hPa | 0 mm | - | 71 W/m² | - |
| 1778067411 | 18.89° C | 96% | 1015.5 hPa | 0 mm | - | 29 W/m² | - |
| 1778066199 | 18.33° C | 96% | 1015.2 hPa | 0 mm | - | 18 W/m² | - |
| 1778065291 | 18.33° C | 96% | 1015 hPa | 0 mm | - | 6 W/m² | - |
| 1778064383 | 18.33° C | 95% | 1014.6 hPa | 0 mm | - | 0 W/m² | - |
| 1778063777 | 18.33° C | 95% | 1015 hPa | 0 mm | - | 0 W/m² | - |
| 1778063474 | 18.33° C | 95% | 1014.9 hPa | 0 mm | - | 0 W/m² | - |
| 1778063172 | 18.33° C | 95% | 1014.7 hPa | 0 mm | - | 0 W/m² | - |
| 1778062566 | 18.33° C | 95% | 1014.4 hPa | 0 mm | - | 0 W/m² | - |
| 1778061961 | 18.33° C | 95% | 1014.4 hPa | 0 mm | - | 0 W/m² | - |
| 1778060751 | 18.33° C | 95% | 1014.5 hPa | 0 mm | - | 0 W/m² | - |
| 1778060449 | 18.33° C | 95% | 1014.2 hPa | 0 mm | - | 0 W/m² | - |
| 1778060147 | 18.33° C | 95% | 1013.7 hPa | 0 mm | - | 0 W/m² | - |
| 1778059844 | 18.33° C | 95% | 1013.7 hPa | 0 mm | - | 0 W/m² | - |
| 1778059542 | 18.33° C | 95% | 1014.2 hPa | 0 mm | - | 0 W/m² | - |
| 1778059238 | 18.33° C | 95% | 1014.1 hPa | 0 mm | - | 0 W/m² | - |
| 1778058937 | 18.33° C | 95% | 1013.9 hPa | 0 mm | - | 0 W/m² | - |
| 1778057421 | 18.33° C | 94% | 1013.7 hPa | 0 mm | - | 0 W/m² | - |
| 1778057118 | 18.33° C | 94% | 1013.7 hPa | 0 mm | - | 0 W/m² | - |
| 1778056209 | 18.33° C | 93% | 1013.9 hPa | 0 mm | - | 0 W/m² | - |
| 1778055601 | 18.33° C | 92% | 1013.9 hPa | 0 mm | - | 0 W/m² | - |
| 1778054997 | 18.33° C | 92% | 1013.7 hPa | 0 mm | - | 0 W/m² | - |
| 1778054694 | 18.33° C | 91% | 1013.9 hPa | 0 mm | - | 0 W/m² | - |
* Rain latest hour (hover to see other rain measurements)
** Current wind speed in m/s (hover to see current wind gust speed)